EW2919 Weather Reports


time (UTC)temp
F
wind
direction
speed
knots
gust
knots
rain 1hr
in
rain 24hr
in
rain mn
in
humidity
%
barometer
mb
20260503050032 39 352 0.0 0.0 0.00 0.00 0.00 84 1015.9
20260503044507 40 352 0.0 0.0 0.00 0.00 0.00 84 1015.9
20260503043018 40 352 0.0 1.7 0.00 0.00 0.00 83 1015.9
20260503041522 41 352 0.0 1.7 0.00 0.00 0.00 82 1015.8
20260503040034 42 352 0.0 1.7 0.00 0.00 0.00 80 1015.7
20260503034534 42 352 0.0 0.0 0.00 0.00 0.00 78 1015.7
20260503031520 44 352 0.0 0.0 0.00 0.00 0.00 74 1015.5
20260503024524 46 352 0.0 0.0 0.00 0.00 0.00 72 1015.5
20260503023020 47 352 0.0 0.0 0.00 0.00 0.00 73 1015.3
20260503021506 47 360 0.0 1.7 0.00 0.00 0.00 72 1015.3
20260503020004 47 226 0.0 1.7 0.00 0.00 0.00 75 1015.1
20260503014504 48 225 0.0 1.7 0.00 0.00 0.00 76 1014.9
20260503013019 49 250 0.0 1.7 0.00 0.00 0.00 75 1014.5
20260503011514 50 345 0.0 1.7 0.00 0.00 0.00 73 1014.3
20260503010015 51 345 0.0 1.7 0.00 0.00 0.00 72 1014.0
20260503004504 52 268 0.0 1.7 0.00 0.00 0.00 69 1013.7
20260503003005 53 297 0.0 1.7 0.00 0.00 0.00 68 1013.5
20260503001509 54 297 0.0 0.9 0.00 0.00 0.00 64 1013.5
20260502233005 56 297 0.0 1.7 0.00 0.00 0.00 58 1012.9
20260502230014 58 297 0.0 0.9 0.00 0.00 0.00 55 1012.6
20260502224517 60 297 0.0 1.7 0.00 0.00 0.00 50 1012.4
20260502223022 61 297 0.9 1.7 0.00 0.00 0.00 43 1012.1
20260502221506 62 261 0.0 2.6 0.00 0.00 0.00 42 1011.9
20260502213018 63 261 0.0 2.6 0.00 0.00 0.00 43 1011.7
20260502211534 63 317 0.0 1.7 0.00 0.00 0.00 46 1011.7
20260502201524 60 28 0.9 2.6 0.00 0.00 0.00 48 1012.1
20260502200004 59 178 0.0 1.7 0.00 0.00 0.00 48 1012.4
20260502194504 59 26 0.0 2.6 0.00 0.00 0.00 48 1012.8
20260502193004 59 114 0.0 1.7 0.00 0.00 0.00 45 1012.9
20260502191504 58 81 0.9 3.5 0.00 0.00 0.00 46 1013.1
20260502183017 55 129 0.0 3.5 0.00 0.00 0.00 50 1013.5
20260502123023 52 38 0.0 1.7 0.00 0.00 0.00 76 1013.9
20260502121524 52 66 0.0 1.7 0.00 0.00 0.00 75 1014.1
20260502114506 51 39 0.9 2.6 0.00 0.00 0.00 77 1013.6
20260502113011 51 61 0.0 2.6 0.00 0.00 0.00 79 1013.8
20260502104534 51 264 0.0 1.7 0.00 0.00 0.00 79 1013.5
20260502103009 51 265 0.0 0.0 0.00 0.00 0.00 78 1013.8
20260502091514 51 336 0.0 1.7 0.00 0.00 0.00 82 1013.8
20260502071522 52 26 0.0 0.0 0.00 0.00 0.00 86 1012.6
20260502070014 52 26 0.0 0.0 0.00 0.00 0.00 85 1012.6
20260502064514 52 26 0.0 0.0 0.00 0.00 0.00 85 1012.8
20260502063026 52 26 0.0 1.7 0.00 0.00 0.00 84 1013.1
20260502061516 52 25 0.0 0.0 0.00 0.00 0.00 84 1013.2
20260502060021 52 25 0.0 0.0 0.00 0.00 0.00 83 1013.3
20260502054522 52 25 0.0 1.7 0.00 0.00 0.00 84 1013.3
20260502053026 52 26 0.0 1.7 0.00 0.00 0.00 84 1013.3
20260502051546 52 182 0.0 0.0 0.00 0.00 0.00 83 1012.9